CYGFM05

Last updated on Fri Sep 11 2026 00:02:39 GMT+0000 (Coordinated Universal Time)

1 41884U 16078A 26253.50127842 .00023678 00000+0 27887-3 0 9994 2 41884 34.9558 54.0884 0005478 254.0699 105.9423 15.60369755542078
UTC large
Height (km)
Speed (km/s)
/
Latitude / Longitude
Inclination (degrees)
Orbital Period (minutes)
Azimuth
Elevation
Range (km)
Doppler Factor

Next 0 passes for location: London (51.5072 / 0.1276)

No passes found over London.
CYGFM05